カタログに戻る

FENGYUN 1C DEB

運用中SSO
NORAD 30202·DEBRIS·🇨🇳 China

打ち上げ May 10, 1999 から Taiyuan Satellite Launch Center

Loading…

次のパス (今後24時間)

TLE

最新Source: Space-Track

元期: Sep 14, 2026, 07:06 UTC

1 30202U 99025VK  26257.29618320  .00005395  00000-0  12016-2 0  9999
2 30202  98.6447   8.7927 0034545 294.0358  65.7226 14.56972584 22937

AllMySatでFENGYUN 1C DEBをリアルタイム追跡

Download on the App Store